Location: Cambroso
(45.2833°N, 12.0850°E)
Time: 10:17:39
(UTC+00:00)

Cosmos 1689 Rocket - Pass Details

Date: 21 January 2021
Orbit: 353 x 367 km, 97.5° (Epoch: 28 February)

Event Time Altitude Azimuth Distance (km) Brightness Sun altitude
Exits shadow 17:18:33 23° 105° (ESE) 821 3.2 -13.1°
Drops below altitude 10° 17:20:40 10° 153° (SSE) 1,328 4.7 -13.5°
Sets 17:22:48 0° 168° (SSE) 2,163 5.9 -13.8°
